When you browse on this site, cookies collect data to enhance your experience and personalize the content and advertising you see.
Visit our Privacy Policy to learn more. By continuing to use the site, you agree to this use of cookies and data.
  • In Portugal
  • List of Countries
  • For 7 days
  • Water Temperature
  • Weather Map
  • Weather Widgets
  • user-avatar
    Login

    Hourly Weather Armagh

    Today, 22 September, Sunday

    Time Temperature Precipitation Wind Pressure Humidity
    00:00 +15°C° 0 mm 4 mps 746 mmHg 97%
    01:00 +17°C° 0.4 mm 4 mps 745 mmHg 97%
    02:00 +17°C° 0.4 mm 4 mps 745 mmHg 97%
    03:00 +17°C° 0.4 mm 4 mps 744 mmHg 96%
    04:00 +15°C° 0.6 mm 4 mps 744 mmHg 97%
    05:00 +16°C° 0.6 mm 3 mps 744 mmHg 97%
    06:00 +16°C° 0.6 mm 3 mps 744 mmHg 97%
    07:00 +16°C° 2.5 mm 2 mps 744 mmHg 98%
    08:00 +16°C° 2.5 mm 2 mps 744 mmHg 98%
    09:00 +16°C° 2.5 mm 2 mps 744 mmHg 98%
    10:00 +16°C° 0.7 mm 2 mps 744 mmHg 97%
    11:00 +16°C° 0.7 mm 2 mps 744 mmHg 97%
    12:00 +16°C° 0.7 mm 2 mps 744 mmHg 97%
    13:00 +16°C° 0.2 mm 2 mps 745 mmHg 95%
    14:00 +17°C° 0.2 mm 2 mps 745 mmHg 93%
    15:00 +17°C° 0.2 mm 2 mps 745 mmHg 91%
    16:00 +16°C° 0.2 mm 2 mps 745 mmHg 92%
    17:00 +15°C° 0.2 mm 2 mps 746 mmHg 93%
    18:00 +15°C° 0.2 mm 2 mps 746 mmHg 94%
    19:00 +14°C° 0 mm 2 mps 746 mmHg 94%
    20:00 +14°C° 0 mm 2 mps 747 mmHg 94%
    21:00 +13°C° 0 mm 2 mps 747 mmHg 95%
    22:00 +13°C° 0 mm 2 mps 748 mmHg 95%
    23:00 +12°C° 0 mm 2 mps 748 mmHg 94%

    Tomorrow, 23 September, Monday

    Time Temperature Precipitation Wind Pressure Humidity
    00:00 +12°C° 0 mm 1 mps 748 mmHg 94%
    01:00 +11°C° 0 mm 1 mps 748 mmHg 94%
    02:00 +11°C° 0 mm 1 mps 748 mmHg 95%
    03:00 +10°C° 0 mm 1 mps 748 mmHg 95%
    04:00 +10°C° 0 mm 1 mps 748 mmHg 95%
    05:00 +8°C° 0 mm 2 mps 748 mmHg 95%
    06:00 +8°C° 0 mm 2 mps 748 mmHg 95%
    07:00 +9°C° 0 mm 2 mps 748 mmHg 93%
    08:00 +10°C° 0 mm 2 mps 748 mmHg 91%
    09:00 +13°C° 0 mm 2 mps 748 mmHg 89%
    10:00 +13°C° 0 mm 3 mps 748 mmHg 85%
    11:00 +14°C° 0 mm 4 mps 747 mmHg 81%
    12:00 +15°C° 0 mm 5 mps 747 mmHg 78%
    13:00 +14°C° 0.6 mm 5 mps 747 mmHg 83%
    14:00 +14°C° 0.6 mm 6 mps 746 mmHg 89%
    15:00 +13°C° 0.6 mm 6 mps 745 mmHg 94%
    16:00 +13°C° 0.4 mm 6 mps 745 mmHg 95%
    17:00 +13°C° 0.4 mm 6 mps 744 mmHg 95%
    18:00 +14°C° 0.4 mm 7 mps 744 mmHg 95%
    19:00 +14°C° 0.1 mm 6 mps 744 mmHg 96%
    20:00 +14°C° 0.1 mm 5 mps 743 mmHg 96%
    21:00 +14°C° 0.1 mm 3 mps 743 mmHg 97%
    22:00 +14°C° 0.5 mm 3 mps 743 mmHg 97%
    23:00 +14°C° 0.5 mm 3 mps 743 mmHg 98%

    Day after tomorrow, 24 September, Tuesday

    Time Temperature Precipitation Wind Pressure Humidity
    00:00 +15°C° 0.5 mm 2 mps 742 mmHg 98%
    01:00 +15°C° 0 mm 2 mps 742 mmHg 98%
    02:00 +15°C° 0 mm 2 mps 742 mmHg 98%
    03:00 +15°C° 0 mm 2 mps 742 mmHg 98%
    04:00 +14°C° 0 mm 2 mps 741 mmHg 98%
    05:00 +14°C° 0 mm 2 mps 741 mmHg 98%
    06:00 +14°C° 0 mm 2 mps 741 mmHg 98%
    07:00 +15°C° 0.5 mm 2 mps 741 mmHg 97%
    08:00 +15°C° 0.5 mm 2 mps 741 mmHg 96%
    09:00 +16°C° 0.5 mm 2 mps 741 mmHg 95%
    10:00 +16°C° 0.1 mm 2 mps 740 mmHg 89%
    11:00 +17°C° 0.1 mm 3 mps 740 mmHg 84%
    12:00 +18°C° 0.1 mm 3 mps 740 mmHg 79%
    13:00 +18°C° 0.1 mm 3 mps 740 mmHg 80%
    14:00 +18°C° 0.1 mm 3 mps 739 mmHg 81%
    15:00 +18°C° 0.1 mm 4 mps 739 mmHg 82%
    16:00 +17°C° 0.1 mm 3 mps 739 mmHg 86%
    17:00 +16°C° 0.1 mm 2 mps 739 mmHg 90%
    18:00 +15°C° 0.1 mm 1 mps 739 mmHg 94%
    19:00 +14°C° 0 mm 1 mps 739 mmHg 94%
    20:00 +13°C° 0 mm 1 mps 739 mmHg 95%
    21:00 +13°C° 0 mm 1 mps 740 mmHg 95%
    22:00 +12°C° 0 mm 1 mps 740 mmHg 95%
    23:00 +12°C° 0 mm 1 mps 740 mmHg 96%

    25 September, Wednesday

    Time Temperature Precipitation Wind Pressure Humidity
    00:00 +12°C° 0 mm 1 mps 740 mmHg 96%
    01:00 +12°C° 0 mm 1 mps 741 mmHg 96%
    02:00 +12°C° 0 mm 1 mps 741 mmHg 97%
    03:00 +12°C° 0 mm 2 mps 742 mmHg 97%
    04:00 +10°C° 0 mm 2 mps 742 mmHg 97%
    05:00 +10°C° 0 mm 2 mps 742 mmHg 97%
    06:00 +10°C° 0 mm 2 mps 742 mmHg 98%
    07:00 +13°C° 0 mm 2 mps 742 mmHg 96%
    08:00 +14°C° 0 mm 2 mps 742 mmHg 95%
    09:00 +15°C° 0 mm 2 mps 742 mmHg 94%
    10:00 +14°C° 0 mm 3 mps 742 mmHg 91%
    11:00 +16°C° 0 mm 3 mps 742 mmHg 88%
    12:00 +17°C° 0 mm 3 mps 743 mmHg 86%
    13:00 +16°C° 0.1 mm 3 mps 742 mmHg 88%
    14:00 +14°C° 0.1 mm 4 mps 742 mmHg 90%
    15:00 +14°C° 0.1 mm 4 mps 741 mmHg 93%
    16:00 +14°C° 0.1 mm 4 mps 741 mmHg 94%
    17:00 +14°C° 0.1 mm 4 mps 740 mmHg 95%
    18:00 +14°C° 0.1 mm 4 mps 739 mmHg 96%
    19:00 +14°C° 1.3 mm 4 mps 739 mmHg 96%
    20:00 +14°C° 1.3 mm 4 mps 739 mmHg 95%
    21:00 +15°C° 1.3 mm 4 mps 738 mmHg 95%
    22:00 +14°C° 1.8 mm 4 mps 738 mmHg 95%
    23:00 +13°C° 1.8 mm 4 mps 738 mmHg 96%

    26 September, Thursday

    Time Temperature Precipitation Wind Pressure Humidity
    00:00 +12°C° 1.8 mm 4 mps 738 mmHg 96%
    01:00 +11°C° 0 mm 4 mps 738 mmHg 95%
    02:00 +10°C° 0 mm 4 mps 738 mmHg 95%
    03:00 +10°C° 0 mm 4 mps 739 mmHg 95%
    04:00 +10°C° 0 mm 4 mps 739 mmHg 95%
    05:00 +10°C° 0 mm 4 mps 739 mmHg 95%
    06:00 +9°C° 0 mm 5 mps 739 mmHg 95%
    07:00 +10°C° 0 mm 5 mps 739 mmHg 93%
    08:00 +10°C° 0 mm 5 mps 739 mmHg 92%
    09:00 +12°C° 0 mm 5 mps 740 mmHg 91%
    10:00 +12°C° 0.2 mm 5 mps 740 mmHg 89%
    11:00 +13°C° 0.2 mm 5 mps 740 mmHg 88%
    12:00 +13°C° 0.2 mm 6 mps 740 mmHg 86%
    13:00 +14°C° 0.2 mm 5 mps 740 mmHg 85%
    14:00 +14°C° 0.2 mm 5 mps 740 mmHg 84%
    15:00 +14°C° 0.2 mm 5 mps 739 mmHg 82%
    16:00 +13°C° 0.1 mm 4 mps 739 mmHg 85%
    17:00 +12°C° 0.1 mm 4 mps 739 mmHg 88%
    18:00 +12°C° 0.1 mm 3 mps 739 mmHg 91%
    19:00 +11°C° 0 mm 3 mps 740 mmHg 92%
    20:00 +11°C° 0 mm 3 mps 740 mmHg 93%
    21:00 +11°C° 0 mm 4 mps 740 mmHg 94%
    22:00 +11°C° 0 mm 4 mps 740 mmHg 94%
    23:00 +10°C° 0 mm 4 mps 740 mmHg 94%

    27 September, Friday

    Time Temperature Precipitation Wind Pressure Humidity
    00:00 +10°C° 0 mm 4 mps 740 mmHg 94%
    01:00 +10°C° 0 mm 4 mps 740 mmHg 93%
    02:00 +9°C° 0 mm 5 mps 740 mmHg 92%
    03:00 +10°C° 0 mm 5 mps 740 mmHg 91%
    04:00 +10°C° 0.5 mm 5 mps 740 mmHg 92%
    05:00 +9°C° 0.5 mm 5 mps 740 mmHg 94%
    06:00 +9°C° 0.5 mm 5 mps 739 mmHg 95%
    07:00 +10°C° 0.6 mm 5 mps 740 mmHg 94%
    08:00 +10°C° 0.6 mm 5 mps 740 mmHg 92%
    09:00 +12°C° 0.6 mm 5 mps 740 mmHg 91%
    10:00 +13°C° 0.2 mm 5 mps 740 mmHg 89%
    11:00 +13°C° 0.2 mm 5 mps 740 mmHg 86%
    12:00 +14°C° 0.2 mm 5 mps 739 mmHg 84%
    13:00 +13°C° 1.2 mm 5 mps 739 mmHg 87%
    14:00 +13°C° 1.2 mm 5 mps 738 mmHg 91%
    15:00 +12°C° 1.2 mm 5 mps 738 mmHg 94%
    16:00 +12°C° 1 mm 5 mps 738 mmHg 94%
    17:00 +12°C° 1 mm 5 mps 738 mmHg 93%
    18:00 +10°C° 1 mm 5 mps 738 mmHg 93%
    19:00 +11°C° 0 mm 4 mps 738 mmHg 94%
    20:00 +10°C° 0 mm 4 mps 738 mmHg 95%
    21:00 +8°C° 0 mm 4 mps 739 mmHg 95%
    22:00 +9°C° 0.2 mm 5 mps 739 mmHg 95%
    23:00 +9°C° 0.2 mm 5 mps 739 mmHg 94%
    Show more